FLOCK 4BE 20

导读 | 星芒AI

FLOCK 4BE 20 是由 Planet 公司发射的 Dove 系列小型地球观测卫星之一,属于 Flock 4B 批次。该卫星主要用于高分辨率光学成像,支持每天对全球范围进行多次成像,广泛应用于环境监测、农业、灾害评估等领域。卫星采用标准化设计,具有低成本、快速部署的特点,是商业遥感领域的重要组成部分。

基本信息
目录编号:
60489
目录名称:
FLOCK 4BE 20
国际标识:
2024-149X
轨道中心:
EARTH
卫星名称:
FLOCK 4BE 20
卫星全名:
FLOCK 4BE 20
卫星状态:
在轨 (已飞行432 天)
发射日期:
2024-08-16 UTC
国别 :
美国 (US)
星等 :
--
轨道信息
数据来源 国际轨道数据
星历时间: 2025-10-22T12:01:39+0800
10小时前
查看轨道信息
半长轴: 6852.741km
偏心率: 0.0004726
轨道倾角: 97.394°
近地点辐角 50.605°
升交点赤经 12.172°
平近点角 309.561°
近地点: 471.367km
远地点: 477.845km
周期: 94.093分钟
每日圈数: 15.304049
详细信息
使用方式:
暂无
2D轨道图
3D轨道图
轨道高度分析图
轨道倾角分析图
轨道综合分析图
查看轨道综合分析图